Year,Month,Day,Hour,Minute,Value (Times are PST for temperature in C)
2018,07,03,00,00,11.70
2018,07,03,00,01,11.70
2018,07,03,00,02,11.70
2018,07,03,00,03,11.70
2018,07,03,00,04,11.70
2018,07,03,00,05,11.70
2018,07,03,00,06,11.70
2018,07,03,00,07,11.80
2018,07,03,00,08,11.70
2018,07,03,00,09,11.70
2018,07,03,00,10,11.70
2018,07,03,00,11,11.70
2018,07,03,00,12,11.60
2018,07,03,00,13,11.60
2018,07,03,00,14,11.50
2018,07,03,00,15,11.50
2018,07,03,00,16,11.40
2018,07,03,00,17,11.40
2018,07,03,00,18,11.40
2018,07,03,00,19,11.30
2018,07,03,00,20,11.30
2018,07,03,00,21,11.30
2018,07,03,00,22,11.30
2018,07,03,00,23,11.30
2018,07,03,00,24,11.30
2018,07,03,00,25,11.30
2018,07,03,00,26,11.30
2018,07,03,00,27,11.30
2018,07,03,00,28,11.20
2018,07,03,00,29,11.20
2018,07,03,00,30,11.20
2018,07,03,00,31,11.20
2018,07,03,00,32,11.20
2018,07,03,00,33,11.20
2018,07,03,00,34,11.10
2018,07,03,00,35,11.10
2018,07,03,00,36,11.10
2018,07,03,00,37,11.10
2018,07,03,00,38,11.10
2018,07,03,00,39,11.10
2018,07,03,00,40,11.10
2018,07,03,00,41,11.10
2018,07,03,00,42,11.10
2018,07,03,00,43,11.10
2018,07,03,00,44,11.10
2018,07,03,00,45,11.10
2018,07,03,00,46,11.10
2018,07,03,00,47,11.10
2018,07,03,00,48,11.10
2018,07,03,00,49,11.10
2018,07,03,00,50,11.00
2018,07,03,00,51,11.00
2018,07,03,00,52,10.90
2018,07,03,00,53,10.90
2018,07,03,00,54,10.90
2018,07,03,00,55,10.90
2018,07,03,00,56,10.80
2018,07,03,00,57,10.80
2018,07,03,00,58,10.80
2018,07,03,00,59,10.70
2018,07,03,01,00,10.70
2018,07,03,01,01,10.70
2018,07,03,01,02,10.60
2018,07,03,01,03,10.60
2018,07,03,01,04,10.60
2018,07,03,01,05,10.60
2018,07,03,01,06,10.60
2018,07,03,01,07,10.50
2018,07,03,01,08,10.50
2018,07,03,01,09,10.50
2018,07,03,01,10,10.50
2018,07,03,01,11,10.40
2018,07,03,01,12,10.40
2018,07,03,01,13,10.40
2018,07,03,01,14,10.30
2018,07,03,01,15,10.30
2018,07,03,01,16,10.30
2018,07,03,01,17,10.20
2018,07,03,01,18,10.20
2018,07,03,01,19,10.20
2018,07,03,01,20,10.20
2018,07,03,01,21,10.20
2018,07,03,01,22,10.10
2018,07,03,01,23,10.10
2018,07,03,01,24,10.10
2018,07,03,01,25,10.10
2018,07,03,01,26,10.00
2018,07,03,01,27,10.00
2018,07,03,01,28,10.00
2018,07,03,01,29,10.00
2018,07,03,01,30,10.00
2018,07,03,01,31,9.90
2018,07,03,01,32,9.90
2018,07,03,01,33,9.90
2018,07,03,01,34,9.90
2018,07,03,01,35,9.80
2018,07,03,01,36,9.80
2018,07,03,01,37,9.80
2018,07,03,01,38,9.80
2018,07,03,01,39,9.80
2018,07,03,01,40,9.80
2018,07,03,01,41,9.80
2018,07,03,01,42,9.80
2018,07,03,01,43,9.70
2018,07,03,01,44,9.70
2018,07,03,01,45,9.70
2018,07,03,01,46,9.70
2018,07,03,01,47,9.70
2018,07,03,01,48,9.70
2018,07,03,01,49,9.70
2018,07,03,01,50,9.70
2018,07,03,01,51,9.70
2018,07,03,01,52,9.70
2018,07,03,01,53,9.70
2018,07,03,01,54,9.70
2018,07,03,01,55,9.70
2018,07,03,01,56,9.70
2018,07,03,01,57,9.70
2018,07,03,01,58,9.70
2018,07,03,01,59,9.70
2018,07,03,02,00,9.70
2018,07,03,02,01,9.70
2018,07,03,02,02,9.70
2018,07,03,02,03,9.70
2018,07,03,02,04,9.70
2018,07,03,02,05,9.70
2018,07,03,02,06,9.70
2018,07,03,02,07,9.70
2018,07,03,02,08,9.70
2018,07,03,02,09,9.60
2018,07,03,02,10,9.60
2018,07,03,02,11,9.60
2018,07,03,02,12,9.60
2018,07,03,02,13,9.60
2018,07,03,02,14,9.50
2018,07,03,02,15,9.50
2018,07,03,02,16,9.50
2018,07,03,02,17,9.40
2018,07,03,02,18,9.40
2018,07,03,02,19,9.40
2018,07,03,02,20,9.30
2018,07,03,02,21,9.30
2018,07,03,02,22,9.30
2018,07,03,02,23,9.30
2018,07,03,02,24,9.30
2018,07,03,02,25,9.20
2018,07,03,02,26,9.20
2018,07,03,02,27,9.20
2018,07,03,02,28,9.20
2018,07,03,02,29,9.20
2018,07,03,02,30,9.20
2018,07,03,02,31,9.20
2018,07,03,02,32,9.20
2018,07,03,02,33,9.20
2018,07,03,02,34,9.20
2018,07,03,02,35,9.20
2018,07,03,02,36,9.20
2018,07,03,02,37,9.20
2018,07,03,02,38,9.10
2018,07,03,02,39,9.10
2018,07,03,02,40,9.10
2018,07,03,02,41,9.10
2018,07,03,02,42,9.10
2018,07,03,02,43,9.10
2018,07,03,02,44,9.10
2018,07,03,02,45,9.10
2018,07,03,02,46,9.00
2018,07,03,02,47,9.00
2018,07,03,02,48,8.90
2018,07,03,02,49,8.90
2018,07,03,02,50,8.90
2018,07,03,02,51,8.80
2018,07,03,02,52,8.80
2018,07,03,02,53,8.80
2018,07,03,02,54,8.70
2018,07,03,02,55,8.70
2018,07,03,02,56,8.70
2018,07,03,02,57,8.70
2018,07,03,02,58,8.70
2018,07,03,02,59,8.70
2018,07,03,03,00,8.70
2018,07,03,03,01,8.70
2018,07,03,03,02,8.70
2018,07,03,03,03,8.70
2018,07,03,03,04,8.70
2018,07,03,03,05,8.70
2018,07,03,03,06,8.60
2018,07,03,03,07,8.60
2018,07,03,03,08,8.60
2018,07,03,03,09,8.60
2018,07,03,03,10,8.60
2018,07,03,03,11,8.50
2018,07,03,03,12,8.50
2018,07,03,03,13,8.50
2018,07,03,03,14,8.50
2018,07,03,03,15,8.50
2018,07,03,03,16,8.50
2018,07,03,03,17,8.50
2018,07,03,03,18,8.50
2018,07,03,03,19,8.50
2018,07,03,03,20,8.50
2018,07,03,03,21,8.60
2018,07,03,03,22,8.60
2018,07,03,03,23,8.60
2018,07,03,03,24,8.60
2018,07,03,03,25,8.60
2018,07,03,03,26,8.60
2018,07,03,03,27,8.60
2018,07,03,03,28,8.60
2018,07,03,03,29,8.60
2018,07,03,03,30,8.60
2018,07,03,03,31,8.60
2018,07,03,03,32,8.60
2018,07,03,03,33,8.60
2018,07,03,03,34,8.60
2018,07,03,03,35,8.60
2018,07,03,03,36,8.60
2018,07,03,03,37,8.60
2018,07,03,03,38,8.60
2018,07,03,03,39,8.60
2018,07,03,03,40,8.50
2018,07,03,03,41,8.50
2018,07,03,03,42,8.50
2018,07,03,03,43,8.50
2018,07,03,03,44,8.50
2018,07,03,03,45,8.50
2018,07,03,03,46,8.50
2018,07,03,03,47,8.40
2018,07,03,03,48,8.40
2018,07,03,03,49,8.40
2018,07,03,03,50,8.40
2018,07,03,03,51,8.40
2018,07,03,03,52,8.40
2018,07,03,03,53,8.40
2018,07,03,03,54,8.40
2018,07,03,03,55,8.40
2018,07,03,03,56,8.40
2018,07,03,03,57,8.40
2018,07,03,03,58,8.40
2018,07,03,03,59,8.30
2018,07,03,04,00,8.30
2018,07,03,04,01,8.30
2018,07,03,04,02,8.30
2018,07,03,04,03,8.30
2018,07,03,04,04,8.30
2018,07,03,04,05,8.30
2018,07,03,04,06,8.20
2018,07,03,04,07,8.20
2018,07,03,04,08,8.20
2018,07,03,04,09,8.20
2018,07,03,04,10,8.20
2018,07,03,04,11,8.20
2018,07,03,04,12,8.20
2018,07,03,04,13,8.20
2018,07,03,04,14,8.20
2018,07,03,04,15,8.20
2018,07,03,04,16,8.20
2018,07,03,04,17,8.20
2018,07,03,04,18,8.10
2018,07,03,04,19,8.10
2018,07,03,04,20,8.10
2018,07,03,04,21,8.10
2018,07,03,04,22,8.10
2018,07,03,04,23,8.10
2018,07,03,04,24,8.10
2018,07,03,04,25,8.10
2018,07,03,04,26,8.10
2018,07,03,04,27,8.10
2018,07,03,04,28,8.10
2018,07,03,04,29,8.10
2018,07,03,04,30,8.10
2018,07,03,04,31,8.10
2018,07,03,04,32,8.10
2018,07,03,04,33,8.10
2018,07,03,04,34,8.00
2018,07,03,04,35,8.00
2018,07,03,04,36,8.00
2018,07,03,04,37,8.00
2018,07,03,04,38,8.10
2018,07,03,04,39,8.10
2018,07,03,04,40,8.10
2018,07,03,04,41,8.10
2018,07,03,04,42,8.10
2018,07,03,04,43,8.10
2018,07,03,04,44,8.10
2018,07,03,04,45,8.10
2018,07,03,04,46,8.10
2018,07,03,04,47,8.10
2018,07,03,04,48,8.10
2018,07,03,04,49,8.10
2018,07,03,04,50,8.00
2018,07,03,04,51,8.00
2018,07,03,04,52,8.00
2018,07,03,04,53,8.00
2018,07,03,04,54,8.00
2018,07,03,04,55,8.00
2018,07,03,04,56,7.90
2018,07,03,04,57,7.90
2018,07,03,04,58,7.90
2018,07,03,04,59,7.90
2018,07,03,05,00,7.90
2018,07,03,05,01,7.90
2018,07,03,05,02,7.80
2018,07,03,05,03,7.80
2018,07,03,05,04,7.80
2018,07,03,05,05,7.80
2018,07,03,05,06,7.80
2018,07,03,05,07,7.80
2018,07,03,05,08,7.80
2018,07,03,05,09,7.80
2018,07,03,05,10,7.80
2018,07,03,05,11,7.80
2018,07,03,05,12,7.80
2018,07,03,05,13,7.70
2018,07,03,05,14,7.70
2018,07,03,05,15,7.70
2018,07,03,05,16,7.70
2018,07,03,05,17,7.70
2018,07,03,05,18,7.70
2018,07,03,05,19,7.70
2018,07,03,05,20,7.70
2018,07,03,05,21,7.70
2018,07,03,05,22,7.70
2018,07,03,05,23,7.70
2018,07,03,05,24,7.60
2018,07,03,05,25,7.60
2018,07,03,05,26,7.60
2018,07,03,05,27,7.60
2018,07,03,05,28,7.50
2018,07,03,05,29,7.50
2018,07,03,05,30,7.50
2018,07,03,05,31,7.50
2018,07,03,05,32,7.50
2018,07,03,05,33,7.50
2018,07,03,05,34,7.50
2018,07,03,05,35,7.50
2018,07,03,05,36,7.50
2018,07,03,05,37,7.50
2018,07,03,05,38,7.50
2018,07,03,05,39,7.50
2018,07,03,05,40,7.40
2018,07,03,05,41,7.40
2018,07,03,05,42,7.40
2018,07,03,05,43,7.40
2018,07,03,05,44,7.40
2018,07,03,05,45,7.40
2018,07,03,05,46,7.30
2018,07,03,05,47,7.30
2018,07,03,05,48,7.30
2018,07,03,05,49,7.30
2018,07,03,05,50,7.30
2018,07,03,05,51,7.30
2018,07,03,05,52,7.30
2018,07,03,05,53,7.30
2018,07,03,05,54,7.30
2018,07,03,05,55,7.30
2018,07,03,05,56,7.30
2018,07,03,05,57,7.40
2018,07,03,05,58,7.40
2018,07,03,05,59,7.40
2018,07,03,06,00,7.40
2018,07,03,06,01,7.40
2018,07,03,06,02,7.50
2018,07,03,06,03,7.50
2018,07,03,06,04,7.50
2018,07,03,06,05,7.50
2018,07,03,06,06,7.50
2018,07,03,06,07,7.50
2018,07,03,06,08,7.60
2018,07,03,06,09,7.60
2018,07,03,06,10,7.60
2018,07,03,06,11,7.60
2018,07,03,06,12,7.60
2018,07,03,06,13,7.60
2018,07,03,06,14,7.60
2018,07,03,06,15,7.60
2018,07,03,06,16,7.60
2018,07,03,06,17,7.60
2018,07,03,06,18,7.60
2018,07,03,06,19,7.60
2018,07,03,06,20,7.60
2018,07,03,06,21,7.60
2018,07,03,06,22,7.60
2018,07,03,06,23,7.60
2018,07,03,06,24,7.60
2018,07,03,06,25,7.60
2018,07,03,06,26,7.70
2018,07,03,06,27,7.70
2018,07,03,06,28,7.70
2018,07,03,06,29,7.70
2018,07,03,06,30,7.70
2018,07,03,06,31,7.70
2018,07,03,06,32,7.70
2018,07,03,06,33,7.70
2018,07,03,06,34,7.80
2018,07,03,06,35,7.80
2018,07,03,06,36,7.80
2018,07,03,06,37,7.80
2018,07,03,06,38,7.80
2018,07,03,06,39,7.90
2018,07,03,06,40,7.90
2018,07,03,06,41,7.90
2018,07,03,06,42,8.00
2018,07,03,06,43,8.00
2018,07,03,06,44,8.00
2018,07,03,06,45,8.10
2018,07,03,06,46,8.10
2018,07,03,06,47,8.20
2018,07,03,06,48,8.30
2018,07,03,06,49,8.30
2018,07,03,06,50,8.30
2018,07,03,06,51,8.40
2018,07,03,06,52,8.40
2018,07,03,06,53,8.50
2018,07,03,06,54,8.50
2018,07,03,06,55,8.60
2018,07,03,06,56,8.60
2018,07,03,06,57,8.70
2018,07,03,06,58,8.70
2018,07,03,06,59,8.70
2018,07,03,07,00,8.70
2018,07,03,07,01,8.70
2018,07,03,07,02,8.80
2018,07,03,07,03,8.80
2018,07,03,07,04,8.80
2018,07,03,07,05,8.90
2018,07,03,07,06,8.90
2018,07,03,07,07,8.90
2018,07,03,07,08,8.90
2018,07,03,07,09,9.00
2018,07,03,07,10,9.00
2018,07,03,07,11,9.10
2018,07,03,07,12,9.10
2018,07,03,07,13,9.10
2018,07,03,07,14,9.20
2018,07,03,07,15,9.20
2018,07,03,07,16,9.20
2018,07,03,07,17,9.30
2018,07,03,07,18,9.30
2018,07,03,07,19,9.30
2018,07,03,07,20,9.40
2018,07,03,07,21,9.40
2018,07,03,07,22,9.40
2018,07,03,07,23,9.50
2018,07,03,07,24,9.50
2018,07,03,07,25,9.60
2018,07,03,07,26,9.60
2018,07,03,07,27,9.60
2018,07,03,07,28,9.70
2018,07,03,07,29,9.70
2018,07,03,07,30,9.70
2018,07,03,07,31,9.70
2018,07,03,07,32,9.80
2018,07,03,07,33,9.80
2018,07,03,07,34,9.80
2018,07,03,07,35,9.90
2018,07,03,07,36,9.90
2018,07,03,07,37,10.00
2018,07,03,07,38,10.00
2018,07,03,07,39,10.10
2018,07,03,07,40,10.10
2018,07,03,07,41,10.20
2018,07,03,07,42,10.20
2018,07,03,07,43,10.20
2018,07,03,07,44,10.30
2018,07,03,07,45,10.30
2018,07,03,07,46,10.40
2018,07,03,07,47,10.40
2018,07,03,07,48,10.50
2018,07,03,07,49,10.50
2018,07,03,07,50,10.60
2018,07,03,07,51,10.70
2018,07,03,07,52,10.70
2018,07,03,07,53,10.80
2018,07,03,07,54,10.80
2018,07,03,07,55,10.90
2018,07,03,07,56,10.90
2018,07,03,07,57,11.00
2018,07,03,07,58,11.10
2018,07,03,07,59,11.10
2018,07,03,08,00,11.20
2018,07,03,08,01,11.30
2018,07,03,08,02,11.30
2018,07,03,08,03,11.40
2018,07,03,08,04,11.40
2018,07,03,08,05,11.50
2018,07,03,08,06,11.60
2018,07,03,08,07,11.60
2018,07,03,08,08,11.70
2018,07,03,08,09,11.80
2018,07,03,08,10,11.80
2018,07,03,08,11,11.80
2018,07,03,08,12,11.90
2018,07,03,08,13,11.90
2018,07,03,08,14,11.90
2018,07,03,08,15,11.90
2018,07,03,08,16,12.00
2018,07,03,08,17,12.10
2018,07,03,08,18,12.10
2018,07,03,08,19,12.20
2018,07,03,08,20,12.30
2018,07,03,08,21,12.40
2018,07,03,08,22,12.50
2018,07,03,08,23,12.60
2018,07,03,08,24,12.70
2018,07,03,08,25,12.90
2018,07,03,08,26,13.00
2018,07,03,08,27,13.10
2018,07,03,08,28,13.20
2018,07,03,08,29,13.30
2018,07,03,08,30,13.40
2018,07,03,08,31,13.40
2018,07,03,08,32,13.40
2018,07,03,08,33,13.30
2018,07,03,08,34,13.40
2018,07,03,08,35,13.40
2018,07,03,08,36,13.40
2018,07,03,08,37,13.40
2018,07,03,08,38,13.30
2018,07,03,08,39,13.40
2018,07,03,08,40,13.40
2018,07,03,08,41,13.50
2018,07,03,08,42,13.50
2018,07,03,08,43,13.60
2018,07,03,08,44,13.70
2018,07,03,08,45,13.70
2018,07,03,08,46,13.70
2018,07,03,08,47,13.60
2018,07,03,08,48,13.60
2018,07,03,08,49,13.60
2018,07,03,08,50,13.60
2018,07,03,08,51,13.60
2018,07,03,08,52,13.70
2018,07,03,08,53,13.70
2018,07,03,08,54,13.80
2018,07,03,08,55,13.90
2018,07,03,08,56,13.90
2018,07,03,08,57,14.00
2018,07,03,08,58,14.00
2018,07,03,08,59,14.10
2018,07,03,09,00,14.10
2018,07,03,09,01,14.10
2018,07,03,09,02,14.20
2018,07,03,09,03,14.10
2018,07,03,09,04,14.10
2018,07,03,09,05,14.10
2018,07,03,09,06,14.10
2018,07,03,09,07,14.10
2018,07,03,09,08,14.10
2018,07,03,09,09,14.10
2018,07,03,09,10,14.10
2018,07,03,09,11,14.10
2018,07,03,09,12,14.10
2018,07,03,09,13,14.10
2018,07,03,09,14,14.10
2018,07,03,09,15,14.10
2018,07,03,09,16,14.20
2018,07,03,09,17,14.30
2018,07,03,09,18,14.40
2018,07,03,09,19,14.40
2018,07,03,09,20,14.50
2018,07,03,09,21,14.50
2018,07,03,09,22,14.60
2018,07,03,09,23,14.70
2018,07,03,09,24,14.80
2018,07,03,09,25,14.90
2018,07,03,09,26,15.00
2018,07,03,09,27,15.10
2018,07,03,09,28,15.10
2018,07,03,09,29,15.00
2018,07,03,09,30,14.90
2018,07,03,09,31,14.90
2018,07,03,09,32,14.80
2018,07,03,09,33,14.80
2018,07,03,09,34,14.80
2018,07,03,09,35,14.80
2018,07,03,09,36,14.70
2018,07,03,09,37,14.70
2018,07,03,09,38,14.70
2018,07,03,09,39,14.70
2018,07,03,09,40,14.70
2018,07,03,09,41,14.70
2018,07,03,09,42,14.60
2018,07,03,09,43,14.60
2018,07,03,09,44,14.60
2018,07,03,09,45,14.70
2018,07,03,09,46,14.80
2018,07,03,09,47,14.80
2018,07,03,09,48,14.90
2018,07,03,09,49,15.00
2018,07,03,09,50,15.00
2018,07,03,09,51,15.10
2018,07,03,09,52,15.10
2018,07,03,09,53,15.10
2018,07,03,09,54,15.10
2018,07,03,09,55,15.00
2018,07,03,09,56,15.00
2018,07,03,09,57,15.00
2018,07,03,09,58,14.90
2018,07,03,09,59,14.90
2018,07,03,10,00,14.90
2018,07,03,10,01,15.00
2018,07,03,10,02,15.00
2018,07,03,10,03,15.00
2018,07,03,10,04,15.10
2018,07,03,10,05,15.10
2018,07,03,10,06,15.10
2018,07,03,10,07,15.10
2018,07,03,10,08,15.20
2018,07,03,10,09,15.20
2018,07,03,10,10,15.20
2018,07,03,10,11,15.30
2018,07,03,10,12,15.40
2018,07,03,10,13,15.50
2018,07,03,10,14,15.50
2018,07,03,10,15,15.60
2018,07,03,10,16,15.50
2018,07,03,10,17,15.50
2018,07,03,10,18,15.50
2018,07,03,10,19,15.60
2018,07,03,10,20,15.60
2018,07,03,10,21,15.60
2018,07,03,10,22,15.60
2018,07,03,10,23,15.60
2018,07,03,10,24,15.50
2018,07,03,10,25,15.50
2018,07,03,10,26,15.50
2018,07,03,10,27,15.50
2018,07,03,10,28,15.50
2018,07,03,10,29,15.50
2018,07,03,10,30,15.50
2018,07,03,10,31,15.50
2018,07,03,10,32,15.50
2018,07,03,10,33,15.60
2018,07,03,10,34,15.70
2018,07,03,10,35,15.80
2018,07,03,10,36,15.90
2018,07,03,10,37,16.00
2018,07,03,10,38,15.90
2018,07,03,10,39,15.90
2018,07,03,10,40,15.90
2018,07,03,10,41,15.80
2018,07,03,10,42,15.80
2018,07,03,10,43,15.70
2018,07,03,10,44,15.70
2018,07,03,10,45,15.70
2018,07,03,10,46,15.70
2018,07,03,10,47,15.80
2018,07,03,10,48,15.90
2018,07,03,10,49,16.00
2018,07,03,10,50,16.00
2018,07,03,10,51,16.10
2018,07,03,10,52,16.10
2018,07,03,10,53,16.10
2018,07,03,10,54,16.20
2018,07,03,10,55,16.20
2018,07,03,10,56,16.30
2018,07,03,10,57,16.30
2018,07,03,10,58,16.40
2018,07,03,10,59,16.50
2018,07,03,11,00,16.70
2018,07,03,11,01,16.80
2018,07,03,11,02,16.90
2018,07,03,11,03,16.90
2018,07,03,11,04,17.00
2018,07,03,11,05,17.10
2018,07,03,11,06,17.10
2018,07,03,11,07,17.10
2018,07,03,11,08,17.10
2018,07,03,11,09,17.20
2018,07,03,11,10,17.20
2018,07,03,11,11,17.20
2018,07,03,11,12,17.20
2018,07,03,11,13,17.20
2018,07,03,11,14,17.30
2018,07,03,11,15,17.30
2018,07,03,11,16,17.30
2018,07,03,11,17,17.40
2018,07,03,11,18,17.40
2018,07,03,11,19,17.50
2018,07,03,11,20,17.60
2018,07,03,11,21,17.70
2018,07,03,11,22,17.70
2018,07,03,11,23,17.70
2018,07,03,11,24,17.70
2018,07,03,11,25,17.60
2018,07,03,11,26,17.70
2018,07,03,11,27,17.70
2018,07,03,11,28,17.70
2018,07,03,11,29,17.70
2018,07,03,11,30,17.70
2018,07,03,11,31,17.70
2018,07,03,11,32,17.70
2018,07,03,11,33,17.70
2018,07,03,11,34,17.70
2018,07,03,11,35,17.60
2018,07,03,11,36,17.50
2018,07,03,11,37,17.50
2018,07,03,11,38,17.40
2018,07,03,11,39,17.30
2018,07,03,11,40,17.30
2018,07,03,11,41,17.20
2018,07,03,11,42,17.20
2018,07,03,11,43,17.20
2018,07,03,11,44,17.20
2018,07,03,11,45,17.30
2018,07,03,11,46,17.30
2018,07,03,11,47,17.30
2018,07,03,11,48,17.40
2018,07,03,11,49,17.50
2018,07,03,11,50,17.60
2018,07,03,11,51,17.60
2018,07,03,11,52,17.60
2018,07,03,11,53,17.60
2018,07,03,11,54,17.60
2018,07,03,11,55,17.70
2018,07,03,11,56,17.70
2018,07,03,11,57,17.70
2018,07,03,11,58,17.60
2018,07,03,11,59,17.50
2018,07,03,12,00,17.50
2018,07,03,12,01,17.50
2018,07,03,12,02,17.40
2018,07,03,12,03,17.40
2018,07,03,12,04,17.40
2018,07,03,12,05,17.40
2018,07,03,12,06,17.40
2018,07,03,12,07,17.40
2018,07,03,12,08,17.40
2018,07,03,12,09,17.40
2018,07,03,12,10,17.50
2018,07,03,12,11,17.50
2018,07,03,12,12,17.50
2018,07,03,12,13,17.50
2018,07,03,12,14,17.60
2018,07,03,12,15,17.60
2018,07,03,12,16,17.80
2018,07,03,12,17,17.90
2018,07,03,12,18,17.90
2018,07,03,12,19,17.90
2018,07,03,12,20,17.80
2018,07,03,12,21,17.80
2018,07,03,12,22,17.80
2018,07,03,12,23,17.80
2018,07,03,12,24,17.80
2018,07,03,12,25,17.80
2018,07,03,12,26,17.80
2018,07,03,12,27,17.90
2018,07,03,12,28,17.90
2018,07,03,12,29,17.90
2018,07,03,12,30,18.00
2018,07,03,12,31,18.00
2018,07,03,12,32,18.10
2018,07,03,12,33,18.10
2018,07,03,12,34,18.10
2018,07,03,12,35,18.10
2018,07,03,12,36,18.20
2018,07,03,12,37,18.30
2018,07,03,12,38,18.30
2018,07,03,12,39,18.30
2018,07,03,12,40,18.30
2018,07,03,12,41,18.20
2018,07,03,12,42,18.20
2018,07,03,12,43,18.10
2018,07,03,12,44,18.10
2018,07,03,12,45,18.00
2018,07,03,12,46,18.00
2018,07,03,12,47,18.00
2018,07,03,12,48,18.00
2018,07,03,12,49,17.90
2018,07,03,12,50,17.90
2018,07,03,12,51,17.90
2018,07,03,12,52,17.80
2018,07,03,12,53,17.80
2018,07,03,12,54,17.80
2018,07,03,12,55,17.80
2018,07,03,12,56,17.90
2018,07,03,12,57,17.90
2018,07,03,12,58,17.90
2018,07,03,12,59,17.90
2018,07,03,13,00,17.90
2018,07,03,13,01,17.90
2018,07,03,13,02,17.90
2018,07,03,13,03,17.80
2018,07,03,13,04,17.70
2018,07,03,13,05,17.60
2018,07,03,13,06,17.60
2018,07,03,13,07,17.60
2018,07,03,13,08,17.70
2018,07,03,13,09,17.70
2018,07,03,13,10,17.60
2018,07,03,13,11,17.50
2018,07,03,13,12,17.50
2018,07,03,13,13,17.40
2018,07,03,13,14,17.40
2018,07,03,13,15,17.40
2018,07,03,13,16,17.40
2018,07,03,13,17,17.40
2018,07,03,13,18,17.40
2018,07,03,13,19,17.40
2018,07,03,13,20,17.40
2018,07,03,13,21,17.50
2018,07,03,13,22,17.60
2018,07,03,13,23,17.60
2018,07,03,13,24,17.70
2018,07,03,13,25,17.70
2018,07,03,13,26,17.70
2018,07,03,13,27,17.70
2018,07,03,13,28,17.70
2018,07,03,13,29,17.70
2018,07,03,13,30,17.70
2018,07,03,13,31,17.80
2018,07,03,13,32,17.80
2018,07,03,13,33,17.80
2018,07,03,13,34,17.70
2018,07,03,13,35,17.70
2018,07,03,13,36,17.70
2018,07,03,13,37,17.70
2018,07,03,13,38,17.70
2018,07,03,13,39,17.70
2018,07,03,13,40,17.70
2018,07,03,13,41,17.70
2018,07,03,13,42,17.80
2018,07,03,13,43,17.80
2018,07,03,13,44,17.90
2018,07,03,13,45,17.90
2018,07,03,13,46,17.80
2018,07,03,13,47,17.90
2018,07,03,13,48,18.00
2018,07,03,13,49,18.00
2018,07,03,13,50,18.10
2018,07,03,13,51,18.20
2018,07,03,13,52,18.20
2018,07,03,13,53,18.10
2018,07,03,13,54,18.10
2018,07,03,13,55,18.10
2018,07,03,13,56,18.00
2018,07,03,13,57,18.00
2018,07,03,13,58,18.10
2018,07,03,13,59,18.10
2018,07,03,14,00,18.10
2018,07,03,14,01,18.10
2018,07,03,14,02,18.20
2018,07,03,14,03,18.20
2018,07,03,14,04,18.20
2018,07,03,14,05,18.20
2018,07,03,14,06,18.20
2018,07,03,14,07,18.20
2018,07,03,14,08,18.20
2018,07,03,14,09,18.20
2018,07,03,14,10,18.20
2018,07,03,14,11,18.30
2018,07,03,14,12,18.40
2018,07,03,14,13,18.50
2018,07,03,14,14,18.60
2018,07,03,14,15,18.60
2018,07,03,14,16,18.60
2018,07,03,14,17,18.50
2018,07,03,14,18,18.40
2018,07,03,14,19,18.40
2018,07,03,14,20,18.40
2018,07,03,14,21,18.50
2018,07,03,14,22,18.50
2018,07,03,14,23,18.50
2018,07,03,14,24,18.40
2018,07,03,14,25,18.30
2018,07,03,14,26,18.40
2018,07,03,14,27,18.40
2018,07,03,14,28,18.40
2018,07,03,14,29,18.50
2018,07,03,14,30,18.40
2018,07,03,14,31,18.30
2018,07,03,14,32,18.20
2018,07,03,14,33,18.20
2018,07,03,14,34,18.20
2018,07,03,14,35,18.10
2018,07,03,14,36,18.10
2018,07,03,14,37,18.10
2018,07,03,14,38,18.00
2018,07,03,14,39,17.90
2018,07,03,14,40,17.90
2018,07,03,14,41,17.90
2018,07,03,14,42,18.00
2018,07,03,14,43,18.10
2018,07,03,14,44,18.00
2018,07,03,14,45,17.90
2018,07,03,14,46,17.90
2018,07,03,14,47,17.90
2018,07,03,14,48,17.80
2018,07,03,14,49,17.80
2018,07,03,14,50,17.80
2018,07,03,14,51,17.80
2018,07,03,14,52,17.70
2018,07,03,14,53,17.70
2018,07,03,14,54,17.70
2018,07,03,14,55,17.70
2018,07,03,14,56,17.60
2018,07,03,14,57,17.60
2018,07,03,14,58,17.60
2018,07,03,14,59,17.60
2018,07,03,15,00,17.60
2018,07,03,15,01,17.60
2018,07,03,15,02,17.60
2018,07,03,15,03,17.60
2018,07,03,15,04,17.60
2018,07,03,15,05,17.70
2018,07,03,15,06,17.80
2018,07,03,15,07,17.90
2018,07,03,15,08,18.00
2018,07,03,15,09,18.10
2018,07,03,15,10,18.20
2018,07,03,15,11,18.20
2018,07,03,15,12,18.20
2018,07,03,15,13,18.20
2018,07,03,15,14,18.20
2018,07,03,15,15,18.20
2018,07,03,15,16,18.20
2018,07,03,15,17,18.20
2018,07,03,15,18,18.20
2018,07,03,15,19,18.10
2018,07,03,15,20,18.10
2018,07,03,15,21,17.90
2018,07,03,15,22,17.90
2018,07,03,15,23,17.80
2018,07,03,15,24,17.80
2018,07,03,15,25,17.80
2018,07,03,15,26,17.90
2018,07,03,15,27,17.80
2018,07,03,15,28,17.80
2018,07,03,15,29,17.90
2018,07,03,15,30,17.90
2018,07,03,15,31,17.90
2018,07,03,15,32,18.00
2018,07,03,15,33,18.00
2018,07,03,15,34,18.10
2018,07,03,15,35,18.00
2018,07,03,15,36,18.00
2018,07,03,15,37,18.00
2018,07,03,15,38,18.00
2018,07,03,15,39,18.00
2018,07,03,15,40,18.10
2018,07,03,15,41,18.10
2018,07,03,15,42,18.20
2018,07,03,15,43,18.30
2018,07,03,15,44,18.20
2018,07,03,15,45,18.20
2018,07,03,15,46,18.30
2018,07,03,15,47,18.30
2018,07,03,15,48,18.30
2018,07,03,15,49,18.20
2018,07,03,15,50,18.20
2018,07,03,15,51,18.20
2018,07,03,15,52,18.20
2018,07,03,15,53,18.20
2018,07,03,15,54,18.30
2018,07,03,15,55,18.30
2018,07,03,15,56,18.30
2018,07,03,15,57,18.30
2018,07,03,15,58,18.40
2018,07,03,15,59,18.40
2018,07,03,16,00,18.40
2018,07,03,16,01,18.40
2018,07,03,16,02,18.30
2018,07,03,16,03,18.30
2018,07,03,16,04,18.20
2018,07,03,16,05,18.30
2018,07,03,16,06,18.30
2018,07,03,16,07,18.30
2018,07,03,16,08,18.30
2018,07,03,16,09,18.40
2018,07,03,16,10,18.40
2018,07,03,16,11,18.40
2018,07,03,16,12,18.30
2018,07,03,16,13,18.30
2018,07,03,16,14,18.30
2018,07,03,16,15,18.40
2018,07,03,16,16,18.40
2018,07,03,16,17,18.30
2018,07,03,16,18,18.30
2018,07,03,16,19,18.30
2018,07,03,16,20,18.30
2018,07,03,16,21,18.30
2018,07,03,16,22,18.40
2018,07,03,16,23,18.40
2018,07,03,16,24,18.40
2018,07,03,16,25,18.30
2018,07,03,16,26,18.30
2018,07,03,16,27,18.30
2018,07,03,16,28,18.20
2018,07,03,16,29,18.20
2018,07,03,16,30,18.20
2018,07,03,16,31,18.20
2018,07,03,16,32,18.20
2018,07,03,16,33,18.20
2018,07,03,16,34,18.20
2018,07,03,16,35,18.10
2018,07,03,16,36,18.10
2018,07,03,16,37,18.10
2018,07,03,16,38,18.20
2018,07,03,16,39,18.20
2018,07,03,16,40,18.30
2018,07,03,16,41,18.30
2018,07,03,16,42,18.30
2018,07,03,16,43,18.30
2018,07,03,16,44,18.40
2018,07,03,16,45,18.40
2018,07,03,16,46,18.40
2018,07,03,16,47,18.50
2018,07,03,16,48,18.50
2018,07,03,16,49,18.50
2018,07,03,16,50,18.40
2018,07,03,16,51,18.50
2018,07,03,16,52,18.50
2018,07,03,16,53,18.50
2018,07,03,16,54,18.40
2018,07,03,16,55,18.40
2018,07,03,16,56,18.40
2018,07,03,16,57,18.40
2018,07,03,16,58,18.40
2018,07,03,16,59,18.40
2018,07,03,17,00,18.50
2018,07,03,17,01,18.50
2018,07,03,17,02,18.50
2018,07,03,17,03,18.50
2018,07,03,17,04,18.50
2018,07,03,17,05,18.50
2018,07,03,17,06,18.50
2018,07,03,17,07,18.50
2018,07,03,17,08,18.50
2018,07,03,17,09,18.50
2018,07,03,17,10,18.40
2018,07,03,17,11,18.40
2018,07,03,17,12,18.40
2018,07,03,17,13,18.40
2018,07,03,17,14,18.30
2018,07,03,17,15,18.30
2018,07,03,17,16,18.20
2018,07,03,17,17,18.30
2018,07,03,17,18,18.30
2018,07,03,17,19,18.30
2018,07,03,17,20,18.30
2018,07,03,17,21,18.30
2018,07,03,17,22,18.30
2018,07,03,17,23,18.20
2018,07,03,17,24,18.20
2018,07,03,17,25,18.20
2018,07,03,17,26,18.10
2018,07,03,17,27,18.10
2018,07,03,17,28,18.10
2018,07,03,17,29,18.20
2018,07,03,17,30,18.20
2018,07,03,17,31,18.10
2018,07,03,17,32,18.20
2018,07,03,17,33,18.20
2018,07,03,17,34,18.20
2018,07,03,17,35,18.30